Zurück zum Katalog

GLOBALSTAR M006

AktivKommunikationLEO
NORAD 25307·PAYLOAD·🇺🇸 United States

Gestartet Apr 24, 1998 von Cape Canaveral Space Force Station

Loading…

Nächste Überflüge (nächste 24 Stunden)

TLE

AktuellSource: Space-Track

Epoche: Sep 14, 2026, 11:11 UTC

1 25307U 98023B   26257.46624544 -.00000091  00000-0 -31768-3 0  9996
2 25307  51.9926 164.2935 0002961 206.6137 324.7480 11.58171278269460

Verfolge GLOBALSTAR M006 in Echtzeit mit AllMySat

Download on the App Store